BEIDOU-2 G3

Last updated on Fri Dec 19 2025 00:02:49 GMT+0000 (Coordinated Universal Time)

1 36590U 10024A 25352.64114182 -.00000114 00000+0 00000+0 0 9999 2 36590 4.0878 62.1662 0004872 312.1662 23.6305 1.00272925 56959
UTC large
Height (km)
Speed (km/s)
/
Latitude / Longitude
Inclination (degrees)
Orbital Period (minutes)
Azimuth
Elevation
Range (km)
Doppler Factor

Next 0 passes for location: London (51.5072 / 0.1276)

Sorry there are no passes over London.